Location: Sandbach
(53.1410°N, 2.3660°W)
Time: 18:53:10
(UTC+01:00)

ISS - Visible Passes

Search period start: 14 May 2021 00:00
Search period end: 24 May 2021 00:00
Orbit: 417 x 422 km, 51.6° (Epoch: 14 May)

Date Brightness Start Highest point End Pass type
(mag) Time Alt. Az. Time Alt. Az. Time Alt. Az.
14 May -1.9 00:18:38 19° E 00:18:38 19° E 00:19:46 10° E visible
14 May -3.9 01:51:31 27° WSW 01:53:11 69° S 01:56:33 10° E visible
14 May -3.3 03:26:35 10° W 03:29:47 40° SSW 03:33:00 10° SE visible
14 May -1.7 21:52:49 10° SE 21:53:06 10° SE 21:53:24 10° SE visible
14 May -3.2 23:26:04 10° SW 23:29:11 35° SSE 23:32:18 10° E visible
15 May -3.9 01:02:24 10° W 01:05:45 68° S 01:09:07 10° E visible
15 May -3.6 02:39:08 10° W 02:42:25 50° SSW 02:45:43 10° ESE visible
15 May -2.2 04:16:22 10° W 04:18:44 18° SW 04:21:05 10° S visible
15 May -2.8 22:38:57 10° SSW 22:41:51 27° SSE 22:44:46 10° E visible
16 May -3.9 00:15:00 10° WSW 00:18:20 63° S 00:21:41 10° E visible
16 May -3.8 01:51:41 10° W 01:55:01 59° S 01:58:22 10° ESE visible
16 May -2.6 03:28:40 10° W 03:31:27 24° SSW 03:34:14 10° SSE visible
16 May -2.4 21:52:00 10° SSW 21:54:33 20° SSE 21:57:07 10° E visible
16 May -3.7 23:27:37 10° WSW 23:30:56 54° SSE 23:34:14 10° E visible
17 May -3.9 01:04:15 10° W 01:07:36 66° S 01:10:58 10° ESE visible
17 May -3.0 02:41:05 10° W 02:44:08 31° SSW 02:47:11 10° SE visible
17 May -3.5 22:40:18 10° SW 22:43:32 45° SSE 22:46:46 10° E visible
18 May -3.9 00:16:49 10° W 00:20:10 69° S 00:22:53 15° E visible
18 May -2.8 01:53:35 10° W 01:55:46 31° WSW 01:55:46 31° WSW visible
18 May -3.1 21:53:03 10° SW 21:56:09 35° SSE 21:59:16 10° E visible
18 May -3.9 23:29:22 10° W 23:32:44 68° S 23:36:05 10° E visible
19 May -3.6 01:06:06 10° W 01:09:22 50° SSW 01:09:22 50° SSW visible
19 May -3.8 22:41:57 10° WSW 22:45:18 63° S 22:48:38 10° E visible
20 May -3.8 00:18:39 10° W 00:21:59 59° S 00:23:11 34° SE visible
20 May -1.4 01:55:38 10° W 01:56:07 13° W 01:56:07 13° W visible
20 May -3.6 21:54:34 10° WSW 21:57:52 54° SSE 22:01:11 10° E visible
20 May -3.8 23:31:12 10° W 23:34:33 66° S 23:37:05 16° ESE visible
21 May -2.4 01:08:02 10° W 01:10:01 25° WSW 01:10:01 25° WSW visible
21 May -3.8 22:43:44 10° W 22:47:06 69° S 22:50:27 10° E visible
22 May -3.3 00:20:31 10° W 00:23:43 40° SSW 00:23:58 39° S visible
22 May -3.8 21:56:18 10° W 21:59:38 68° S 22:03:00 10° E visible
22 May -3.5 23:33:01 10° W 23:36:18 50° SSW 23:37:57 25° SE visible
23 May -1.4 01:10:17 10° W 01:10:53 13° WSW 01:10:53 13° WSW visible
23 May -3.7 22:45:32 10° W 22:48:52 59° S 22:51:57 12° ESE visible
